Weather History for Lewisburg, WV

Change the Weather History Date:

Monday, January 21, 2013

  Actual Average Record
Temperature  
Mean Temperature 27 °F 29 °F  
Max Temperature 35 °F 39 °F 54 °F (2006)
Min Temperature 17 °F 18 °F -14 °F (1985)
Degree Days  
Heating Degree Days 38    
Month to date heating degree days  
Since 1 July heating degree days  
Cooling Degree Days 0    
Month to date cooling degree days  
Year to date cooling degree days  
Moisture  
Dew Point 6 °F    
Average Humidity 44    
Maximum Humidity 68    
Minimum Humidity 25    
Precipitation  
Precipitation 0.00 in 0.10 in 0.52 in (2012)
Month to date precipitation 2.15  
Year to date precipitation 2.15  
Snow  
Snow 0.00 in - - ()
Month to date snowfall  
Since 1 July snowfall  
Snow Depth -    
Sea Level Pressure  
Sea Level Pressure 29.94 in    
Wind  
Wind Speed 7 mph (West)    
Max Wind Speed 24 mph    
Max Gust Speed 38 mph    
Visibility 10 miles    
Events      
T = Trace of Precipitation, MM = Missing Value Source: NWS Daily Summary

Daily Weather History Graph

Daily Weather History Graph

Search for Another Location

Airport:

Trip Planner

Search our weather history database for the weather conditions in past years. The results will help you decide how hot, cold, wet, or windy it might be!

Date:

Astronomy

Jan. 21, 2013 Rise Set
Actual Time 7:33 AM EST 5:33 PM EST
Civil Twilight 7:04 AM EST 6:01 PM EST
Nautical Twilight 6:32 AM EST 6:33 PM EST
Astronomical Twilight 6:01 AM EST 7:04 PM EST
Moon 1:12 PM EST (1/21) 2:59 AM EST (1/21)
Length of Visible Light 10h 56m
Length of Day
9h 59m
Waxing Gibbous, 75% of the Moon is Illuminated
Jan 21
Waxing Gibbous
Jan 26
Full
Feb 3
Last Quarter
Feb 10
New
Feb 17
First Quarter

Hourly Weather History & Observations

Time (EST) Temp. Windchill Dew Point Humidity Pressure Visibility Wind Dir Wind Speed Gust Speed Precip Events Conditions
12:15 AM 28.4 °F 24.6 °F 3.2 °F 34% 30.05 in 10.0 mi West 3.5 mph - N/A   Clear
4:15 AM 23.0 °F 17.0 °F 6.8 °F 50% 30.02 in 10.0 mi WSW 4.6 mph - N/A   Clear
4:35 AM 21.2 °F 16.4 °F 6.8 °F 54% 30.02 in 10.0 mi SW 3.5 mph - N/A   Clear
4:55 AM 21.2 °F - 8.6 °F 58% 30.02 in 10.0 mi Calm Calm - N/A   Clear
5:15 AM 21.2 °F - 8.6 °F 58% 30.02 in 10.0 mi Calm Calm - N/A   Clear
5:35 AM 21.2 °F 16.4 °F 8.6 °F 58% 30.02 in 10.0 mi WSW 3.5 mph - N/A   Clear
5:55 AM 19.4 °F 14.3 °F 8.6 °F 63% 30.01 in 10.0 mi SSW 3.5 mph - N/A   Clear
6:15 AM 21.2 °F - 10.4 °F 63% 30.01 in 10.0 mi Calm Calm - N/A   Scattered Clouds
6:35 AM 19.4 °F - 10.4 °F 68% 30.00 in 10.0 mi Calm Calm - N/A   Scattered Clouds
6:55 AM 19.4 °F - 10.4 °F 68% 30.00 in 10.0 mi Calm Calm - N/A   Mostly Cloudy
7:15 AM 21.2 °F - 10.4 °F 63% 30.00 in 10.0 mi Calm Calm - N/A   Overcast
7:35 AM 21.2 °F - 10.4 °F 63% 30.00 in 10.0 mi Calm Calm - N/A   Mostly Cloudy
7:55 AM 19.4 °F - 10.4 °F 68% 30.00 in 10.0 mi Calm Calm - N/A   Clear
8:15 AM 21.2 °F - 10.4 °F 63% 29.99 in 10.0 mi Calm Calm - N/A   Clear
8:35 AM 23.0 °F - 12.2 °F 63% 30.00 in 10.0 mi Calm Calm - N/A   Clear
8:55 AM 26.6 °F - 10.4 °F 51% 30.01 in 10.0 mi Calm Calm - N/A   Clear
9:15 AM 28.4 °F 22.2 °F 10.4 °F 47% 30.00 in 10.0 mi SSW 5.8 mph - N/A   Mostly Cloudy
9:35 AM 28.4 °F 21.2 °F 12.2 °F 51% 30.00 in 10.0 mi SW 6.9 mph - N/A   Scattered Clouds
9:55 AM 30.2 °F 23.4 °F 10.4 °F 44% 30.01 in 10.0 mi SW 6.9 mph - N/A   Mostly Cloudy
10:15 AM 30.2 °F 23.4 °F 12.2 °F 47% 30.00 in 10.0 mi SW 6.9 mph - N/A   Overcast
10:35 AM 32.0 °F 25.6 °F 12.2 °F 44% 29.99 in 10.0 mi WSW 6.9 mph - N/A   Overcast
10:55 AM 32.0 °F 24.2 °F 12.2 °F 44% 29.98 in 10.0 mi SW 9.2 mph - N/A   Mostly Cloudy
11:15 AM 32.0 °F 23.0 °F 10.4 °F 41% 29.98 in 10.0 mi SW 11.5 mph - N/A   Mostly Cloudy
11:35 AM 32.0 °F 23.0 °F 10.4 °F 41% 29.96 in 10.0 mi SW 11.5 mph 16.1 mph N/A   Overcast
11:55 AM 32.0 °F 23.6 °F 8.6 °F 38% 29.95 in 10.0 mi WSW 10.4 mph 17.3 mph N/A   Overcast
12:15 PM 32.0 °F 23.0 °F 10.4 °F 41% 29.93 in 10.0 mi WSW 11.5 mph - N/A   Overcast
12:35 PM 32.0 °F 25.6 °F 8.6 °F 38% 29.92 in 10.0 mi WNW 6.9 mph - N/A   Overcast
12:55 PM 33.8 °F 23.9 °F 5.0 °F 30% 29.91 in 10.0 mi West 15.0 mph 19.6 mph N/A   Overcast
1:15 PM 33.8 °F 23.5 °F 6.8 °F 32% 29.89 in 10.0 mi WSW 16.1 mph 21.9 mph N/A   Mostly Cloudy
1:35 PM 35.6 °F 27.5 °F 6.8 °F 30% 29.89 in 10.0 mi West 11.5 mph 20.7 mph N/A   Scattered Clouds
1:55 PM 35.6 °F 28.0 °F 6.8 °F 30% 29.87 in 10.0 mi West 10.4 mph 16.1 mph N/A   Clear
2:15 PM 35.6 °F 25.5 °F 8.6 °F 33% 29.86 in 10.0 mi West 17.3 mph 23.0 mph N/A   Clear
2:35 PM 35.6 °F 25.5 °F 8.6 °F 33% 29.86 in 10.0 mi West 17.3 mph 21.9 mph N/A   Clear
3:15 PM 33.8 °F 21.3 °F 5.0 °F 30% 29.86 in 10.0 mi WSW 24.2 mph 35.7 mph N/A   Clear
3:55 PM 33.8 °F 22.8 °F 3.2 °F 28% 29.85 in 10.0 mi West 18.4 mph 38.0 mph N/A   Clear
4:15 PM 33.8 °F 23.9 °F 3.2 °F 28% 29.85 in 10.0 mi West 15.0 mph 29.9 mph N/A   Clear
4:35 PM 33.8 °F 23.5 °F 1.4 °F 25% 29.86 in 10.0 mi West 16.1 mph 29.9 mph N/A   Clear
4:55 PM 33.8 °F 23.9 °F 1.4 °F 25% 29.86 in 10.0 mi WNW 15.0 mph 24.2 mph N/A   Clear
5:15 PM 32.0 °F 22.1 °F -0.4 °F 25% 29.87 in 10.0 mi WNW 13.8 mph 20.7 mph N/A   Clear
5:35 PM 32.0 °F 22.5 °F -0.4 °F 25% 29.88 in 10.0 mi WNW 12.7 mph 21.9 mph N/A   Clear
5:55 PM 30.2 °F 20.2 °F -0.4 °F 27% 29.89 in 10.0 mi WNW 12.7 mph 20.7 mph N/A   Clear
6:15 PM 30.2 °F 18.5 °F -0.4 °F 27% 29.89 in 10.0 mi West 17.3 mph 23.0 mph N/A   Clear
6:35 PM 28.4 °F 19.1 °F -0.4 °F 29% 29.90 in 10.0 mi West 10.4 mph 21.9 mph N/A   Clear
6:55 PM 28.4 °F 18.0 °F -2.2 °F 27% 29.90 in 10.0 mi WNW 12.7 mph 20.7 mph N/A   Clear
7:15 PM 28.4 °F 19.1 °F -0.4 °F 29% 29.90 in 10.0 mi West 10.4 mph 18.4 mph N/A   Clear
7:55 PM 26.6 °F 16.2 °F 3.2 °F 37% 29.90 in 10.0 mi WNW 11.5 mph 19.6 mph N/A   Clear
8:15 PM 24.8 °F 16.1 °F 5.0 °F 43% 29.91 in 10.0 mi WNW 8.1 mph 17.3 mph N/A   Clear
8:35 PM 23.0 °F 14.7 °F 5.0 °F 46% 29.91 in 10.0 mi NW 6.9 mph 16.1 mph N/A   Clear
8:55 PM 23.0 °F 13.9 °F 5.0 °F 46% 29.92 in 10.0 mi WNW 8.1 mph 18.4 mph N/A   Clear
9:35 PM 21.2 °F 9.5 °F 5.0 °F 50% 29.93 in 10.0 mi WNW 11.5 mph 16.1 mph N/A   Clear
9:55 PM 21.2 °F 10.9 °F 5.0 °F 50% 29.93 in 10.0 mi NW 9.2 mph 17.3 mph N/A   Clear
10:15 PM 21.2 °F 10.9 °F 5.0 °F 50% 29.93 in 10.0 mi NW 9.2 mph 17.3 mph N/A   Scattered Clouds
10:35 PM 21.2 °F 10.9 °F 1.4 °F 42% 29.93 in 10.0 mi WNW 9.2 mph 19.6 mph N/A   Clear
10:55 PM 19.4 °F 6.6 °F 1.4 °F 46% 29.94 in 10.0 mi WNW 12.7 mph 18.4 mph N/A   Scattered Clouds
11:15 PM 19.4 °F 6.6 °F 1.4 °F 46% 29.94 in 10.0 mi WNW 12.7 mph 23.0 mph N/A   Scattered Clouds
11:35 PM 19.4 °F 6.6 °F 1.4 °F 46% 29.95 in 10.0 mi NW 12.7 mph 20.7 mph N/A   Scattered Clouds
11:55 PM 17.6 °F 6.4 °F 3.2 °F 53% 29.96 in 10.0 mi WNW 9.2 mph 21.9 mph N/A   Mostly Cloudy